contact:dominique.lefevre@mio.osupytheas.fr, maurice.libes@osupytheas.fr, didier.mallarino@osupytheas.fr
Project:EMSO http://www.emso-fr.org/EMSO-France
Depth: 2436.0 m
Title:EMSO Ligure Ouest : Data MII capteur MICROCAT
DateTime_Computer,Latitude,Longitude,Temperature,Conductivity,Pressure,DateTime_Instrument
DateTime_Computer,Latitude,Longitude,degC,S m-1,dbar,DateTime_Instrument
2020-02-26T00:01:14Z,42.805,6.029,13.2982,4.59991,2469.9,2020-2-26T02:01:49Z
2020-02-26T00:04:17Z,42.805,6.029,13.2983,4.59996,2469.937,2020-2-26T02:04:52Z
2020-02-26T00:07:20Z,42.805,6.029,13.2990,4.59993,2469.914,2020-2-26T02:07:56Z
2020-02-26T00:10:23Z,42.805,6.029,13.2983,4.59986,2469.89,2020-2-26T02:10:59Z
2020-02-26T00:13:26Z,42.805,6.029,13.2984,4.59998,2469.853,2020-2-26T02:14:02Z
2020-02-26T00:16:30Z,42.805,6.029,13.2982,4.59998,2469.89,2020-2-26T02:17:05Z
2020-02-26T00:19:33Z,42.805,6.029,13.2981,4.59985,2469.876,2020-2-26T02:20:09Z
2020-02-26T00:22:36Z,42.805,6.029,13.2990,4.59997,2469.867,2020-2-26T02:23:12Z
2020-02-26T00:25:39Z,42.805,6.029,13.2993,4.60003,2469.853,2020-2-26T02:26:15Z
2020-02-26T00:28:42Z,42.805,6.029,13.2981,4.60000,2469.89,2020-2-26T02:29:18Z
2020-02-26T00:31:46Z,42.805,6.029,13.2981,4.60000,2469.867,2020-2-26T02:32:21Z
2020-02-26T00:34:49Z,42.805,6.029,13.2987,4.59998,2469.867,2020-2-26T02:35:25Z
2020-02-26T00:37:52Z,42.805,6.029,13.2983,4.59995,2469.876,2020-2-26T02:38:28Z
2020-02-26T00:40:55Z,42.805,6.029,13.2990,4.59999,2469.89,2020-2-26T02:41:31Z
2020-02-26T00:43:58Z,42.805,6.029,13.2981,4.59991,2469.844,2020-2-26T02:44:34Z
2020-02-26T00:47:02Z,42.805,6.029,13.2976,4.59986,2469.867,2020-2-26T02:47:37Z
2020-02-26T00:50:05Z,42.805,6.029,13.2980,4.59992,2469.876,2020-2-26T02:50:41Z
2020-02-26T00:53:08Z,42.805,6.029,13.2986,4.59999,2469.853,2020-2-26T02:53:44Z
2020-02-26T00:56:11Z,42.805,6.029,13.2978,4.59986,2469.844,2020-2-26T02:56:47Z
2020-02-26T00:59:15Z,42.805,6.029,13.2984,4.59991,2469.844,2020-2-26T02:59:50Z
2020-02-26T01:02:18Z,42.805,6.029,13.2984,4.60001,2469.853,2020-2-26T03:02:53Z
2020-02-26T01:05:21Z,42.805,6.029,13.2989,4.60002,2469.83,2020-2-26T03:05:57Z
2020-02-26T01:08:24Z,42.805,6.029,13.2982,4.59999,2469.821,2020-2-26T03:09:00Z
2020-02-26T01:11:27Z,42.805,6.029,13.2984,4.59992,2469.853,2020-2-26T03:12:03Z
2020-02-26T01:14:31Z,42.805,6.029,13.2983,4.59994,2469.867,2020-2-26T03:15:06Z
2020-02-26T01:17:34Z,42.805,6.029,13.2990,4.59994,2469.867,2020-2-26T03:18:10Z
2020-02-26T01:20:37Z,42.805,6.029,13.2990,4.59994,2469.83,2020-2-26T03:21:13Z
2020-02-26T01:23:40Z,42.805,6.029,13.2979,4.59989,2469.844,2020-2-26T03:24:16Z
2020-02-26T01:26:43Z,42.805,6.029,13.2978,4.59985,2469.821,2020-2-26T03:27:19Z
2020-02-26T01:29:47Z,42.805,6.029,13.2991,4.59998,2469.83,2020-2-26T03:30:22Z
2020-02-26T01:32:50Z,42.805,6.029,13.2982,4.59987,2469.853,2020-2-26T03:33:26Z
2020-02-26T01:35:53Z,42.805,6.029,13.2992,4.60000,2469.853,2020-2-26T03:36:29Z
2020-02-26T01:38:56Z,42.805,6.029,13.2988,4.59999,2469.853,2020-2-26T03:39:32Z
2020-02-26T01:41:59Z,42.805,6.029,13.2982,4.59992,2469.844,2020-2-26T03:42:35Z
2020-02-26T01:45:03Z,42.805,6.029,13.2983,4.59992,2469.806,2020-2-26T03:45:38Z
2020-02-26T01:48:06Z,42.805,6.029,13.2982,4.59991,2469.853,2020-2-26T03:48:41Z
2020-02-26T01:51:09Z,42.805,6.029,13.2984,4.60001,2469.806,2020-2-26T03:51:45Z
2020-02-26T01:54:12Z,42.805,6.029,13.2973,4.59987,2469.806,2020-2-26T03:54:48Z
2020-02-26T01:57:15Z,42.805,6.029,13.2984,4.59991,2469.806,2020-2-26T03:57:51Z
2020-02-26T02:00:18Z,42.805,6.029,13.2978,4.59988,2469.83,2020-2-26T04:00:54Z
2020-02-26T02:03:22Z,42.805,6.029,13.2986,4.60001,2469.806,2020-2-26T04:03:57Z
2020-02-26T02:06:25Z,42.805,6.029,13.2982,4.60008,2469.821,2020-2-26T04:07:01Z
2020-02-26T02:09:28Z,42.805,6.029,13.2990,4.59996,2469.806,2020-2-26T04:10:04Z
2020-02-26T02:12:31Z,42.805,6.029,13.2979,4.59983,2469.844,2020-2-26T04:13:07Z
2020-02-26T02:15:34Z,42.805,6.029,13.2986,4.59993,2469.821,2020-2-26T04:16:10Z
2020-02-26T02:18:38Z,42.805,6.029,13.2984,4.59992,2469.853,2020-2-26T04:19:13Z
2020-02-26T02:21:41Z,42.805,6.029,13.2983,4.60000,2469.821,2020-2-26T04:22:16Z
2020-02-26T02:24:44Z,42.805,6.029,13.2986,4.59997,2469.806,2020-2-26T04:25:20Z
2020-02-26T02:27:47Z,42.805,6.029,13.2987,4.60005,2469.806,2020-2-26T04:28:23Z
2020-02-26T02:30:50Z,42.805,6.029,13.2991,4.59998,2469.821,2020-2-26T04:31:26Z
2020-02-26T02:33:54Z,42.805,6.029,13.2985,4.60006,2469.867,2020-2-26T04:34:29Z
2020-02-26T02:36:57Z,42.805,6.029,13.2994,4.60003,2469.844,2020-2-26T04:37:33Z
2020-02-26T02:40:00Z,42.805,6.029,13.2986,4.60003,2469.821,2020-2-26T04:40:36Z
2020-02-26T02:43:03Z,42.805,6.029,13.2983,4.59991,2469.821,2020-2-26T04:43:39Z
2020-02-26T02:46:07Z,42.805,6.029,13.2979,4.59985,2469.783,2020-2-26T04:46:42Z
2020-02-26T02:49:10Z,42.805,6.029,13.2990,4.60009,2469.797,2020-2-26T04:49:46Z
2020-02-26T02:52:13Z,42.805,6.029,13.2980,4.60011,2469.821,2020-2-26T04:52:49Z
2020-02-26T02:55:16Z,42.805,6.029,13.2983,4.60008,2469.821,2020-2-26T04:55:52Z
2020-02-26T02:58:19Z,42.805,6.029,13.2984,4.60003,2469.793,2020-2-26T04:58:55Z
2020-02-26T03:01:23Z,42.805,6.029,13.2974,4.59990,2469.797,2020-2-26T05:01:58Z
2020-02-26T03:04:26Z,42.805,6.029,13.2981,4.60001,2469.821,2020-2-26T05:05:01Z
2020-02-26T03:07:29Z,42.805,6.029,13.2990,4.59999,2469.797,2020-2-26T05:08:05Z
2020-02-26T03:10:32Z,42.805,6.029,13.2992,4.60008,2469.793,2020-2-26T05:11:08Z
2020-02-26T03:13:35Z,42.805,6.029,13.2986,4.59991,2469.806,2020-2-26T05:14:11Z
2020-02-26T03:16:39Z,42.805,6.029,13.2983,4.60009,2469.821,2020-2-26T05:17:14Z
2020-02-26T03:19:42Z,42.805,6.029,13.2991,4.60005,2469.844,2020-2-26T05:20:17Z
2020-02-26T03:22:45Z,42.805,6.029,13.2990,4.60008,2469.83,2020-2-26T05:23:21Z
2020-02-26T03:25:48Z,42.805,6.029,13.2990,4.60003,2469.806,2020-2-26T05:26:24Z
2020-02-26T03:28:51Z,42.805,6.029,13.2985,4.60011,2469.806,2020-2-26T05:29:27Z
2020-02-26T03:31:54Z,42.805,6.029,13.2991,4.60006,2469.844,2020-2-26T05:32:30Z
2020-02-26T03:34:58Z,42.805,6.029,13.2988,4.59997,2469.806,2020-2-26T05:35:33Z
2020-02-26T03:38:01Z,42.805,6.029,13.2987,4.59997,2469.806,2020-2-26T05:38:36Z
2020-02-26T03:41:04Z,42.805,6.029,13.2984,4.60001,2469.806,2020-2-26T05:41:40Z
2020-02-26T03:44:07Z,42.805,6.029,13.2986,4.60014,2469.806,2020-2-26T05:44:43Z
2020-02-26T03:47:10Z,42.805,6.029,13.2978,4.59990,2469.821,2020-2-26T05:47:46Z
2020-02-26T03:50:13Z,42.805,6.029,13.2983,4.59998,2469.821,2020-2-26T05:50:49Z
2020-02-26T03:53:17Z,42.805,6.029,13.2982,4.59989,2469.797,2020-2-26T05:53:52Z
2020-02-26T03:56:20Z,42.805,6.029,13.2980,4.60009,2469.821,2020-2-26T05:56:56Z
2020-02-26T03:59:23Z,42.805,6.029,13.2991,4.60014,2469.821,2020-2-26T05:59:59Z
2020-02-26T04:02:26Z,42.805,6.029,13.2980,4.59997,2469.821,2020-2-26T06:03:02Z
2020-02-26T04:05:30Z,42.805,6.029,13.2981,4.59997,2469.83,2020-2-26T06:06:05Z
2020-02-26T04:08:33Z,42.805,6.029,13.2974,4.59991,2469.821,2020-2-26T06:09:08Z
2020-02-26T04:11:36Z,42.805,6.029,13.2981,4.60002,2469.821,2020-2-26T06:12:12Z
2020-02-26T04:14:39Z,42.805,6.029,13.2986,4.60000,2469.844,2020-2-26T06:15:15Z
2020-02-26T04:17:42Z,42.805,6.029,13.2989,4.60007,2469.83,2020-2-26T06:18:18Z
2020-02-26T04:20:46Z,42.805,6.029,13.2989,4.60011,2469.844,2020-2-26T06:21:21Z
2020-02-26T04:23:49Z,42.805,6.029,13.2982,4.60003,2469.844,2020-2-26T06:24:25Z
2020-02-26T04:26:52Z,42.805,6.029,13.2996,4.60001,2469.821,2020-2-26T06:27:28Z
2020-02-26T04:29:55Z,42.805,6.029,13.2980,4.59994,2469.806,2020-2-26T06:30:31Z
2020-02-26T04:32:58Z,42.805,6.029,13.2975,4.59984,2469.867,2020-2-26T06:33:34Z
2020-02-26T04:36:02Z,42.805,6.029,13.2971,4.59979,2469.83,2020-2-26T06:36:37Z
2020-02-26T04:39:05Z,42.805,6.029,13.2972,4.59983,2469.821,2020-2-26T06:39:41Z
2020-02-26T04:42:08Z,42.805,6.029,13.2974,4.59986,2469.867,2020-2-26T06:42:44Z
2020-02-26T04:45:11Z,42.805,6.029,13.2982,4.59982,2469.83,2020-2-26T06:45:47Z
2020-02-26T04:48:14Z,42.805,6.029,13.2991,4.59998,2469.844,2020-2-26T06:48:50Z
2020-02-26T04:51:18Z,42.805,6.029,13.2979,4.59990,2469.89,2020-2-26T06:51:53Z
2020-02-26T04:54:21Z,42.805,6.029,13.2986,4.60004,2469.853,2020-2-26T06:54:56Z
2020-02-26T04:57:24Z,42.805,6.029,13.2981,4.60005,2469.876,2020-2-26T06:58:00Z
2020-02-26T05:00:27Z,42.805,6.029,13.2982,4.60007,2469.89,2020-2-26T07:01:03Z
2020-02-26T05:03:30Z,42.805,6.029,13.2985,4.60000,2469.853,2020-2-26T07:04:06Z
2020-02-26T05:06:33Z,42.805,6.029,13.2990,4.60011,2469.867,2020-2-26T07:07:09Z
2020-02-26T05:09:37Z,42.805,6.029,13.2995,4.60001,2469.844,2020-2-26T07:10:12Z
2020-02-26T05:12:40Z,42.805,6.029,13.2992,4.59993,2469.89,2020-2-26T07:13:16Z
2020-02-26T05:15:43Z,42.805,6.029,13.2982,4.60009,2469.853,2020-2-26T07:16:19Z
2020-02-26T05:18:46Z,42.805,6.029,13.2993,4.60009,2469.867,2020-2-26T07:19:22Z
2020-02-26T05:21:49Z,42.805,6.029,13.2990,4.60007,2469.853,2020-2-26T07:22:25Z
2020-02-26T05:24:53Z,42.805,6.029,13.2991,4.60017,2469.89,2020-2-26T07:25:28Z
2020-02-26T05:27:56Z,42.805,6.029,13.2988,4.60019,2469.876,2020-2-26T07:28:32Z
2020-02-26T05:30:59Z,42.805,6.029,13.2986,4.60014,2469.923,2020-2-26T07:31:35Z
2020-02-26T05:34:02Z,42.805,6.029,13.2992,4.60020,2469.876,2020-2-26T07:34:38Z
2020-02-26T05:37:05Z,42.805,6.029,13.3002,4.60010,2469.9,2020-2-26T07:37:41Z
2020-02-26T05:40:09Z,42.805,6.029,13.3000,4.60018,2469.9,2020-2-26T07:40:44Z
2020-02-26T05:43:12Z,42.805,6.029,13.2989,4.60004,2469.876,2020-2-26T07:43:48Z
2020-02-26T05:46:15Z,42.805,6.029,13.2988,4.60015,2469.9,2020-2-26T07:46:51Z
2020-02-26T05:49:18Z,42.805,6.029,13.2997,4.60019,2469.876,2020-2-26T07:49:54Z
2020-02-26T05:52:21Z,42.805,6.029,13.2991,4.60021,2469.876,2020-2-26T07:52:57Z
2020-02-26T05:55:25Z,42.805,6.029,13.3003,4.60013,2469.9,2020-2-26T07:56:00Z
2020-02-26T05:58:28Z,42.805,6.029,13.2997,4.60014,2469.914,2020-2-26T07:59:04Z
2020-02-26T06:01:31Z,42.805,6.029,13.3011,4.60003,2469.923,2020-2-26T08:02:07Z
2020-02-26T06:04:34Z,42.805,6.029,13.3000,4.60034,2469.937,2020-2-26T08:05:10Z
2020-02-26T06:07:38Z,42.805,6.029,13.2995,4.60024,2469.9,2020-2-26T08:08:13Z
2020-02-26T06:10:41Z,42.805,6.029,13.2990,4.60004,2469.937,2020-2-26T08:11:17Z
2020-02-26T06:13:44Z,42.805,6.029,13.2996,4.60008,2469.914,2020-2-26T08:14:20Z
2020-02-26T06:16:47Z,42.805,6.029,13.2992,4.60000,2469.876,2020-2-26T08:17:23Z
2020-02-26T06:19:50Z,42.805,6.029,13.3003,4.60020,2469.9,2020-2-26T08:20:26Z
2020-02-26T06:22:54Z,42.805,6.029,13.2991,4.60006,2469.947,2020-2-26T08:23:29Z
2020-02-26T06:25:57Z,42.805,6.029,13.2991,4.59999,2469.923,2020-2-26T08:26:33Z
2020-02-26T06:29:00Z,42.805,6.029,13.2980,4.59985,2469.937,2020-2-26T08:29:36Z
2020-02-26T06:32:03Z,42.805,6.029,13.2978,4.59990,2469.937,2020-2-26T08:32:39Z
2020-02-26T06:35:06Z,42.805,6.029,13.2985,4.59986,2470.007,2020-2-26T08:35:42Z
2020-02-26T06:38:10Z,42.805,6.029,13.2979,4.60009,2469.984,2020-2-26T08:38:45Z
2020-02-26T06:41:13Z,42.805,6.029,13.2986,4.59985,2469.984,2020-2-26T08:41:49Z
2020-02-26T06:44:16Z,42.805,6.029,13.2996,4.59978,2469.947,2020-2-26T08:44:52Z
2020-02-26T06:47:19Z,42.805,6.029,13.2975,4.59996,2469.96,2020-2-26T08:47:55Z
2020-02-26T06:50:23Z,42.805,6.029,13.2982,4.59992,2469.947,2020-2-26T08:50:58Z
2020-02-26T06:53:26Z,42.805,6.029,13.2976,4.59988,2469.97,2020-2-26T08:54:02Z
2020-02-26T06:56:29Z,42.805,6.029,13.2982,4.59999,2469.97,2020-2-26T08:57:05Z
2020-02-26T06:59:32Z,42.805,6.029,13.2991,4.60002,2469.97,2020-2-26T09:00:08Z
2020-02-26T07:02:35Z,42.805,6.029,13.2996,4.59989,2469.96,2020-2-26T09:03:11Z
2020-02-26T07:05:39Z,42.805,6.029,13.2991,4.59980,2469.937,2020-2-26T09:06:14Z
2020-02-26T07:08:42Z,42.805,6.029,13.2998,4.59996,2469.947,2020-2-26T09:09:18Z
2020-02-26T07:11:45Z,42.805,6.029,13.2984,4.59999,2469.97,2020-2-26T09:12:21Z
2020-02-26T07:14:48Z,42.805,6.029,13.2990,4.60004,2469.97,2020-2-26T09:15:24Z
2020-02-26T07:17:51Z,42.805,6.029,13.2987,4.59990,2470.007,2020-2-26T09:18:27Z
2020-02-26T07:20:55Z,42.805,6.029,13.2989,4.60021,2470.007,2020-2-26T09:21:30Z
2020-02-26T07:23:58Z,42.805,6.029,13.2996,4.60023,2469.993,2020-2-26T09:24:33Z
2020-02-26T07:27:01Z,42.805,6.029,13.2984,4.60031,2469.97,2020-2-26T09:27:37Z
2020-02-26T07:30:04Z,42.805,6.029,13.3002,4.60014,2470.03,2020-2-26T09:30:40Z
2020-02-26T07:33:07Z,42.805,6.029,13.2984,4.59997,2469.993,2020-2-26T09:33:43Z
2020-02-26T07:36:11Z,42.805,6.029,13.2979,4.60009,2470.04,2020-2-26T09:36:46Z
2020-02-26T07:39:14Z,42.805,6.029,13.2993,4.60013,2470.04,2020-2-26T09:39:50Z
2020-02-26T07:42:17Z,42.805,6.029,13.3004,4.59996,2470.017,2020-2-26T09:42:53Z
2020-02-26T07:45:20Z,42.805,6.029,13.2997,4.60026,2469.993,2020-2-26T09:45:56Z
2020-02-26T07:48:23Z,42.805,6.029,13.2986,4.60036,2470.03,2020-2-26T09:48:59Z
2020-02-26T07:51:27Z,42.805,6.029,13.2987,4.60016,2470.017,2020-2-26T09:52:02Z
2020-02-26T07:54:30Z,42.805,6.029,13.2978,4.60024,2470.04,2020-2-26T09:55:05Z
2020-02-26T07:57:33Z,42.805,6.029,13.2991,4.60024,2470.053,2020-2-26T09:58:09Z
2020-02-26T08:00:36Z,42.805,6.029,13.2990,4.60029,2470.04,2020-2-26T10:01:12Z
2020-02-26T08:03:39Z,42.805,6.029,13.2996,4.59991,2470.04,2020-2-26T10:04:15Z
2020-02-26T08:06:43Z,42.805,6.029,13.3004,4.60023,2470.04,2020-2-26T10:07:18Z
2020-02-26T08:09:46Z,42.805,6.029,13.3003,4.60015,2469.993,2020-2-26T10:10:21Z
2020-02-26T08:12:49Z,42.805,6.029,13.2987,4.60016,2470.007,2020-2-26T10:13:25Z
2020-02-26T08:15:52Z,42.805,6.029,13.2992,4.60017,2470.053,2020-2-26T10:16:28Z
2020-02-26T08:18:55Z,42.805,6.029,13.2998,4.60016,2470.017,2020-2-26T10:19:31Z
2020-02-26T08:21:59Z,42.805,6.029,13.2988,4.60024,2470.053,2020-2-26T10:22:34Z
2020-02-26T08:25:02Z,42.805,6.029,13.2998,4.60031,2470.017,2020-2-26T10:25:38Z
2020-02-26T08:28:05Z,42.805,6.029,13.2998,4.60019,2470.04,2020-2-26T10:28:41Z
2020-02-26T08:31:08Z,42.805,6.029,13.2976,4.59995,2470.03,2020-2-26T10:31:44Z
2020-02-26T08:34:11Z,42.805,6.029,13.2978,4.59983,2470.017,2020-2-26T10:34:47Z
2020-02-26T08:37:15Z,42.805,6.029,13.2971,4.59981,2470.03,2020-2-26T10:37:50Z
2020-02-26T08:40:18Z,42.805,6.029,13.2985,4.60006,2470.04,2020-2-26T10:40:53Z
2020-02-26T08:43:21Z,42.805,6.029,13.2982,4.60005,2470.053,2020-2-26T10:43:57Z
2020-02-26T08:46:24Z,42.805,6.029,13.2998,4.60009,2470.053,2020-2-26T10:47:00Z
2020-02-26T08:49:27Z,42.805,6.029,13.2971,4.59984,2470.063,2020-2-26T10:50:03Z
2020-02-26T08:52:31Z,42.805,6.029,13.2974,4.59981,2470.04,2020-2-26T10:53:06Z
2020-02-26T08:55:34Z,42.805,6.029,13.2982,4.60019,2470.04,2020-2-26T10:56:10Z
2020-02-26T08:58:37Z,42.805,6.029,13.2986,4.59997,2470.063,2020-2-26T10:59:13Z
2020-02-26T09:01:40Z,42.805,6.029,13.2983,4.60006,2470.077,2020-2-26T11:02:16Z
2020-02-26T09:04:43Z,42.805,6.029,13.2989,4.60011,2470.063,2020-2-26T11:05:19Z
2020-02-26T09:07:47Z,42.805,6.029,13.2992,4.60002,2470.04,2020-2-26T11:08:22Z
2020-02-26T09:10:50Z,42.805,6.029,13.2981,4.60004,2470.053,2020-2-26T11:11:26Z
2020-02-26T09:13:53Z,42.805,6.029,13.2986,4.60001,2470.04,2020-2-26T11:14:29Z
2020-02-26T09:16:56Z,42.805,6.029,13.2973,4.59987,2470.04,2020-2-26T11:17:32Z
2020-02-26T09:19:59Z,42.805,6.029,13.2985,4.60001,2470.04,2020-2-26T11:20:35Z
2020-02-26T09:23:03Z,42.805,6.029,13.2993,4.59992,2470.04,2020-2-26T11:23:38Z
2020-02-26T09:26:06Z,42.805,6.029,13.2986,4.60001,2470.063,2020-2-26T11:26:42Z
2020-02-26T09:29:10Z,42.805,6.029,13.2980,4.59996,2470.04,2020-2-26T11:29:45Z
2020-02-26T09:32:13Z,42.805,6.029,13.2978,4.59984,2470.053,2020-2-26T11:32:49Z
2020-02-26T09:35:16Z,42.805,6.029,13.2978,4.59986,2470.053,2020-2-26T11:35:52Z
2020-02-26T09:38:20Z,42.805,6.029,13.2975,4.59983,2470.017,2020-2-26T11:38:55Z
2020-02-26T09:41:23Z,42.805,6.029,13.2973,4.59983,2470.077,2020-2-26T11:41:59Z
2020-02-26T09:44:26Z,42.805,6.029,13.2976,4.59982,2470.063,2020-2-26T11:45:02Z
2020-02-26T09:47:29Z,42.805,6.029,13.2979,4.59995,2470.063,2020-2-26T11:48:05Z
2020-02-26T09:50:32Z,42.805,6.029,13.2977,4.60001,2470.04,2020-2-26T11:51:08Z
2020-02-26T09:53:36Z,42.805,6.029,13.2975,4.59984,2470.03,2020-2-26T11:54:11Z
2020-02-26T09:56:39Z,42.805,6.029,13.2979,4.60002,2470.04,2020-2-26T11:57:15Z
2020-02-26T09:59:42Z,42.805,6.029,13.2986,4.59994,2470.017,2020-2-26T12:00:18Z
2020-02-26T10:02:46Z,42.805,6.029,13.2983,4.59994,2470.053,2020-2-26T12:03:21Z
2020-02-26T10:05:49Z,42.805,6.029,13.2973,4.59980,2470.063,2020-2-26T12:06:25Z
2020-02-26T10:08:52Z,42.805,6.029,13.2973,4.59984,2470.03,2020-2-26T12:09:28Z
2020-02-26T10:11:55Z,42.805,6.029,13.2977,4.59986,2470.063,2020-2-26T12:12:31Z
2020-02-26T10:14:58Z,42.805,6.029,13.2979,4.59990,2470.077,2020-2-26T12:15:34Z
2020-02-26T10:18:02Z,42.805,6.029,13.2983,4.59986,2470.017,2020-2-26T12:18:37Z
2020-02-26T10:21:05Z,42.805,6.029,13.2966,4.59987,2470.017,2020-2-26T12:21:41Z
2020-02-26T10:24:08Z,42.805,6.029,13.2976,4.59985,2469.993,2020-2-26T12:24:44Z
2020-02-26T10:27:11Z,42.805,6.029,13.2973,4.59983,2470.007,2020-2-26T12:27:47Z
2020-02-26T10:30:14Z,42.805,6.029,13.2977,4.59993,2470.017,2020-2-26T12:30:50Z
2020-02-26T10:33:18Z,42.805,6.029,13.2974,4.59980,2470.03,2020-2-26T12:33:53Z
2020-02-26T10:36:21Z,42.805,6.029,13.2976,4.59989,2470.003,2020-2-26T12:36:57Z
2020-02-26T10:39:24Z,42.805,6.029,13.2974,4.59986,2470.04,2020-2-26T12:40:00Z
2020-02-26T10:42:27Z,42.805,6.029,13.2969,4.59980,2470.03,2020-2-26T12:43:03Z
2020-02-26T10:45:30Z,42.805,6.029,13.2971,4.59980,2470.053,2020-2-26T12:46:06Z
2020-02-26T10:48:34Z,42.805,6.029,13.2972,4.59984,2470.053,2020-2-26T12:49:09Z
2020-02-26T10:51:37Z,42.805,6.029,13.2980,4.59993,2470.03,2020-2-26T12:52:13Z
2020-02-26T10:54:40Z,42.805,6.029,13.2974,4.59985,2469.993,2020-2-26T12:55:16Z
2020-02-26T10:57:44Z,42.805,6.029,13.2971,4.59980,2470.04,2020-2-26T12:58:19Z
2020-02-26T11:00:47Z,42.805,6.029,13.2977,4.59990,2469.993,2020-2-26T13:01:22Z
2020-02-26T11:03:50Z,42.805,6.029,13.2978,4.59981,2470.017,2020-2-26T13:04:26Z
2020-02-26T11:06:53Z,42.805,6.029,13.2974,4.59982,2469.993,2020-2-26T13:07:29Z
2020-02-26T11:09:56Z,42.805,6.029,13.2973,4.59981,2469.97,2020-2-26T13:10:32Z
2020-02-26T11:13:00Z,42.805,6.029,13.2985,4.60000,2470.017,2020-2-26T13:13:35Z
2020-02-26T11:16:03Z,42.805,6.029,13.2976,4.59986,2469.993,2020-2-26T13:16:39Z
2020-02-26T11:19:06Z,42.805,6.029,13.2979,4.59984,2470.007,2020-2-26T13:19:42Z
2020-02-26T11:22:09Z,42.805,6.029,13.2979,4.59984,2469.984,2020-2-26T13:22:45Z
2020-02-26T11:25:12Z,42.805,6.029,13.2971,4.59978,2470.007,2020-2-26T13:25:48Z
2020-02-26T11:28:16Z,42.805,6.029,13.2978,4.59992,2469.97,2020-2-26T13:28:51Z
2020-02-26T11:31:19Z,42.805,6.029,13.2975,4.59983,2469.947,2020-2-26T13:31:55Z
2020-02-26T11:34:22Z,42.805,6.029,13.2976,4.59988,2469.993,2020-2-26T13:34:58Z
2020-02-26T11:37:25Z,42.805,6.029,13.2981,4.59997,2469.97,2020-2-26T13:38:01Z
2020-02-26T11:40:28Z,42.805,6.029,13.2979,4.59998,2469.97,2020-2-26T13:41:04Z
2020-02-26T11:43:32Z,42.805,6.029,13.2973,4.59985,2469.97,2020-2-26T13:44:07Z
2020-02-26T11:46:35Z,42.805,6.029,13.2976,4.59993,2469.97,2020-2-26T13:47:11Z
2020-02-26T11:49:38Z,42.805,6.029,13.2986,4.59999,2469.984,2020-2-26T13:50:14Z
2020-02-26T11:52:41Z,42.805,6.029,13.2979,4.59997,2469.914,2020-2-26T13:53:17Z
2020-02-26T11:55:44Z,42.805,6.029,13.2972,4.59986,2469.947,2020-2-26T13:56:20Z
2020-02-26T11:58:48Z,42.805,6.029,13.2979,4.59990,2469.947,2020-2-26T13:59:24Z
2020-02-26T12:01:51Z,42.805,6.029,13.2976,4.59998,2469.947,2020-2-26T14:02:27Z
2020-02-26T12:04:54Z,42.805,6.029,13.2974,4.59988,2469.937,2020-2-26T14:05:30Z
2020-02-26T12:07:57Z,42.805,6.029,13.2975,4.59989,2469.923,2020-2-26T14:08:33Z
2020-02-26T12:11:01Z,42.805,6.029,13.2979,4.59997,2469.97,2020-2-26T14:11:36Z
2020-02-26T12:14:04Z,42.805,6.029,13.2979,4.59990,2469.947,2020-2-26T14:14:40Z
2020-02-26T12:17:07Z,42.805,6.029,13.2974,4.59981,2469.923,2020-2-26T14:17:43Z
2020-02-26T12:20:10Z,42.805,6.029,13.2985,4.59995,2469.96,2020-2-26T14:20:46Z
2020-02-26T12:23:13Z,42.805,6.029,13.2974,4.59996,2469.947,2020-2-26T14:23:49Z
2020-02-26T12:26:17Z,42.805,6.029,13.2974,4.59981,2469.97,2020-2-26T14:26:52Z
2020-02-26T12:29:20Z,42.805,6.029,13.2977,4.59981,2469.947,2020-2-26T14:29:56Z
2020-02-26T12:32:23Z,42.805,6.029,13.2974,4.59981,2469.96,2020-2-26T14:32:59Z
2020-02-26T12:35:26Z,42.805,6.029,13.2979,4.59995,2469.914,2020-2-26T14:36:02Z
2020-02-26T12:38:29Z,42.805,6.029,13.2977,4.59996,2469.923,2020-2-26T14:39:05Z
2020-02-26T12:41:33Z,42.805,6.029,13.2973,4.59991,2469.937,2020-2-26T14:42:08Z
2020-02-26T12:44:36Z,42.805,6.029,13.2980,4.59983,2469.947,2020-2-26T14:45:12Z
2020-02-26T12:47:39Z,42.805,6.029,13.2974,4.59981,2469.937,2020-2-26T14:48:15Z
2020-02-26T12:50:42Z,42.805,6.029,13.2974,4.59978,2469.937,2020-2-26T14:51:18Z
2020-02-26T12:53:45Z,42.805,6.029,13.2983,4.59999,2469.923,2020-2-26T14:54:21Z
2020-02-26T12:56:49Z,42.805,6.029,13.2983,4.59992,2469.947,2020-2-26T14:57:24Z
2020-02-26T12:59:52Z,42.805,6.029,13.2976,4.59983,2469.923,2020-2-26T15:00:28Z
2020-02-26T13:02:55Z,42.805,6.029,13.2972,4.59979,2469.9,2020-2-26T15:03:31Z
2020-02-26T13:05:58Z,42.805,6.029,13.2979,4.59991,2469.937,2020-2-26T15:06:34Z
2020-02-26T13:09:01Z,42.805,6.029,13.2971,4.59980,2469.937,2020-2-26T15:09:37Z
2020-02-26T13:12:05Z,42.805,6.029,13.2968,4.59989,2469.876,2020-2-26T15:12:41Z
2020-02-26T13:15:08Z,42.805,6.029,13.2977,4.59984,2469.9,2020-2-26T15:15:44Z
2020-02-26T13:18:12Z,42.805,6.029,13.2974,4.59999,2469.914,2020-2-26T15:18:47Z
2020-02-26T13:21:15Z,42.805,6.029,13.2984,4.60001,2469.914,2020-2-26T15:21:50Z
2020-02-26T13:24:18Z,42.805,6.029,13.2983,4.60001,2469.914,2020-2-26T15:24:54Z
2020-02-26T13:27:21Z,42.805,6.029,13.2972,4.59984,2469.876,2020-2-26T15:27:57Z
2020-02-26T13:30:24Z,42.805,6.029,13.2972,4.59983,2469.9,2020-2-26T15:31:00Z
2020-02-26T13:33:28Z,42.805,6.029,13.2983,4.59999,2469.853,2020-2-26T15:34:03Z
2020-02-26T13:36:31Z,42.805,6.029,13.2974,4.59981,2469.89,2020-2-26T15:37:07Z
2020-02-26T13:39:34Z,42.805,6.029,13.2976,4.59987,2469.853,2020-2-26T15:40:10Z
2020-02-26T13:42:37Z,42.805,6.029,13.2985,4.60003,2469.853,2020-2-26T15:43:13Z
2020-02-26T13:45:40Z,42.805,6.029,13.2990,4.59993,2469.89,2020-2-26T15:46:16Z
2020-02-26T13:48:44Z,42.805,6.029,13.2976,4.60002,2469.89,2020-2-26T15:49:19Z
2020-02-26T13:51:47Z,42.805,6.029,13.2980,4.59995,2469.89,2020-2-26T15:52:22Z
2020-02-26T13:54:50Z,42.805,6.029,13.2989,4.59997,2469.9,2020-2-26T15:55:26Z
2020-02-26T13:57:53Z,42.805,6.029,13.2973,4.59981,2469.853,2020-2-26T15:58:29Z
2020-02-26T14:00:57Z,42.805,6.029,13.2983,4.59996,2469.886,2020-2-26T16:01:32Z
2020-02-26T14:04:00Z,42.805,6.029,13.2991,4.59982,2469.853,2020-2-26T16:04:36Z
2020-02-26T14:07:03Z,42.805,6.029,13.2981,4.60001,2469.89,2020-2-26T16:07:39Z
2020-02-26T14:10:06Z,42.805,6.029,13.2977,4.60002,2469.853,2020-2-26T16:10:42Z
2020-02-26T14:13:10Z,42.805,6.029,13.2986,4.60002,2469.853,2020-2-26T16:13:45Z
2020-02-26T14:16:13Z,42.805,6.029,13.2980,4.60004,2469.853,2020-2-26T16:16:48Z
2020-02-26T14:19:16Z,42.805,6.029,13.2980,4.60001,2469.867,2020-2-26T16:19:52Z
2020-02-26T14:22:19Z,42.805,6.029,13.2980,4.60004,2469.89,2020-2-26T16:22:55Z
2020-02-26T14:25:22Z,42.805,6.029,13.2992,4.59997,2469.853,2020-2-26T16:25:58Z
2020-02-26T14:28:25Z,42.805,6.029,13.2989,4.60008,2469.89,2020-2-26T16:29:01Z
2020-02-26T14:31:29Z,42.805,6.029,13.2985,4.60003,2469.853,2020-2-26T16:32:04Z
2020-02-26T14:34:32Z,42.805,6.029,13.2986,4.60006,2469.844,2020-2-26T16:35:08Z
2020-02-26T14:37:35Z,42.805,6.029,13.2985,4.60006,2469.853,2020-2-26T16:38:11Z
2020-02-26T14:40:38Z,42.805,6.029,13.2983,4.60009,2469.867,2020-2-26T16:41:14Z
2020-02-26T14:43:42Z,42.805,6.029,13.2983,4.59999,2469.867,2020-2-26T16:44:17Z
2020-02-26T14:46:45Z,42.805,6.029,13.2992,4.60003,2469.83,2020-2-26T16:47:21Z
2020-02-26T14:49:48Z,42.805,6.029,13.2986,4.59994,2469.9,2020-2-26T16:50:24Z
2020-02-26T14:52:51Z,42.805,6.029,13.2986,4.60015,2469.83,2020-2-26T16:53:27Z
2020-02-26T14:55:55Z,42.805,6.029,13.2979,4.60001,2469.83,2020-2-26T16:56:30Z
2020-02-26T14:58:58Z,42.805,6.029,13.2989,4.59999,2469.844,2020-2-26T16:59:34Z
2020-02-26T15:02:01Z,42.805,6.029,13.2983,4.60006,2469.853,2020-2-26T17:02:37Z
2020-02-26T15:05:04Z,42.805,6.029,13.2981,4.59999,2469.83,2020-2-26T17:05:40Z
2020-02-26T15:08:07Z,42.805,6.029,13.2983,4.60000,2469.853,2020-2-26T17:08:43Z
2020-02-26T15:11:11Z,42.805,6.029,13.2983,4.60002,2469.83,2020-2-26T17:11:46Z
2020-02-26T15:14:14Z,42.805,6.029,13.2992,4.60011,2469.867,2020-2-26T17:14:50Z